TimeEDT,TemperatureF,Dew PointF,Humidity,Sea Level PressureIn,VisibilityMPH,Wind Direction,Wind SpeedMPH,Gust SpeedMPH,PrecipitationIn,Events,Conditions,WindDirDegrees,DateUTC
12:15 AM,66.0,58.1,76,29.91,10.0,NW,6.9,-,N/A,,Mostly Cloudy,320,2013-05-24 04:15:00
12:35 AM,66.2,57.4,73,29.92,10.0,NW,4.6,-,N/A,,Mostly Cloudy,310,2013-05-24 04:35:00
12:55 AM,66.2,57.2,73,29.92,10.0,NNW,4.6,-,N/A,,Mostly Cloudy,330,2013-05-24 04:55:00
1:15 AM,66.2,57.0,72,29.92,10.0,NNW,3.5,-,N/A,,Mostly Cloudy,340,2013-05-24 05:15:00
1:35 AM,65.1,57.2,75,29.92,10.0,Calm,Calm,-,N/A,,Mostly Cloudy,0,2013-05-24 05:35:00
1:55 AM,65.3,56.5,73,29.92,10.0,NW,3.5,-,N/A,,Scattered Clouds,310,2013-05-24 05:55:00
2:15 AM,63.7,54.9,73,29.91,10.0,NW,5.8,-,N/A,,Clear,320,2013-05-24 06:15:00
2:35 AM,62.4,54.0,74,29.92,10.0,WNW,5.8,-,N/A,,Scattered Clouds,300,2013-05-24 06:35:00
2:55 AM,62.6,53.8,73,29.92,10.0,WNW,5.8,-,N/A,,Mostly Cloudy,300,2013-05-24 06:55:00
3:15 AM,62.6,53.8,73,29.92,10.0,WNW,5.8,-,N/A,,Overcast,290,2013-05-24 07:15:00
3:35 AM,62.6,53.2,71,29.92,10.0,WNW,4.6,-,N/A,,Scattered Clouds,290,2013-05-24 07:35:00
3:55 AM,61.3,54.1,77,29.91,10.0,NW,3.5,-,N/A,,Scattered Clouds,310,2013-05-24 07:55:00
4:15 AM,61.5,53.8,76,29.92,10.0,West,3.5,-,N/A,,Clear,270,2013-05-24 08:15:00
4:35 AM,61.9,54.0,75,29.92,10.0,Calm,Calm,-,N/A,,Clear,0,2013-05-24 08:35:00
4:55 AM,59.0,54.0,83,29.92,10.0,WSW,4.6,-,N/A,,Clear,240,2013-05-24 08:55:00
5:15 AM,58.1,54.0,86,29.92,10.0,SW,4.6,-,N/A,,Clear,230,2013-05-24 09:15:00
5:35 AM,58.6,53.8,84,29.93,10.0,Calm,Calm,-,N/A,,Clear,0,2013-05-24 09:35:00
5:55 AM,58.5,53.6,84,29.94,10.0,Calm,Calm,-,N/A,,Clear,0,2013-05-24 09:55:00
6:15 AM,58.1,53.6,85,29.94,10.0,Calm,Calm,-,N/A,,Clear,0,2013-05-24 10:15:00
6:35 AM,55.8,53.6,92,29.94,10.0,Calm,Calm,-,N/A,,Clear,0,2013-05-24 10:35:00
6:55 AM,56.7,53.4,89,29.95,10.0,West,4.6,-,N/A,,Clear,280,2013-05-24 10:55:00
7:15 AM,57.4,53.8,88,29.96,10.0,West,3.5,-,N/A,,Clear,270,2013-05-24 11:15:00
7:35 AM,59.2,54.3,84,29.97,10.0,WNW,3.5,-,N/A,,Clear,290,2013-05-24 11:35:00
7:55 AM,60.3,54.9,82,29.97,10.0,WNW,4.6,-,N/A,,Clear,300,2013-05-24 11:55:00
8:15 AM,62.4,54.9,76,29.97,10.0,West,4.6,-,N/A,,Clear,270,2013-05-24 12:15:00
8:35 AM,64.8,55.9,73,29.98,10.0,WNW,6.9,-,N/A,,Clear,300,2013-05-24 12:35:00
8:55 AM,65.7,53.4,65,29.99,10.0,WNW,9.2,-,N/A,,Clear,300,2013-05-24 12:55:00
9:15 AM,67.1,52.3,59,30.00,10.0,WNW,10.4,-,N/A,,Clear,300,2013-05-24 13:15:00
9:35 AM,67.5,52.2,58,30.01,10.0,WNW,10.4,17.3,N/A,,Clear,290,2013-05-24 13:35:00
9:55 AM,68.0,53.1,59,30.02,10.0,NW,10.4,-,N/A,,Clear,310,2013-05-24 13:55:00
10:15 AM,69.1,47.5,46,30.04,10.0,NW,13.8,25.3,N/A,,Clear,310,2013-05-24 14:15:00
10:35 AM,69.1,46.6,45,30.04,10.0,NW,15.0,23.0,N/A,,Clear,320,2013-05-24 14:35:00
10:55 AM,68.0,43.2,41,30.07,10.0,NW,16.1,27.6,N/A,,Clear,320,2013-05-24 14:55:00
11:15 AM,68.4,43.7,41,30.07,10.0,NNW,15.0,21.9,N/A,,Clear,330,2013-05-24 15:15:00
11:35 AM,67.6,44.8,44,30.08,10.0,NNW,23.0,31.1,N/A,,Clear,330,2013-05-24 15:35:00
11:55 AM,67.3,46.0,46,30.10,10.0,NNW,15.0,29.9,N/A,,Clear,330,2013-05-24 15:55:00
12:15 PM,67.1,46.0,47,30.12,10.0,North,9.2,25.3,N/A,,Clear,350,2013-05-24 16:15:00
12:35 PM,66.7,45.1,46,30.12,10.0,NNW,12.7,18.4,N/A,,Clear,340,2013-05-24 16:35:00
12:55 PM,66.4,45.3,47,30.12,10.0,North,11.5,21.9,N/A,,Clear,10,2013-05-24 16:55:00
1:15 PM,67.1,45.1,45,30.12,10.0,NNW,13.8,21.9,N/A,,Clear,340,2013-05-24 17:15:00
1:35 PM,67.1,42.4,41,30.12,10.0,NW,11.5,23.0,N/A,,Clear,310,2013-05-24 17:35:00
1:55 PM,67.1,41.2,39,30.12,10.0,NW,12.7,20.7,N/A,,Clear,320,2013-05-24 17:55:00
2:15 PM,68.5,41.7,38,30.12,10.0,WNW,10.4,19.6,N/A,,Clear,300,2013-05-24 18:15:00
2:35 PM,68.9,41.4,37,30.12,10.0,NW,13.8,20.7,N/A,,Clear,320,2013-05-24 18:35:00
2:55 PM,68.9,40.3,35,30.12,10.0,NW,12.7,18.4,N/A,,Clear,310,2013-05-24 18:55:00
3:15 PM,69.3,40.5,35,30.11,10.0,NNW,12.7,17.3,N/A,,Clear,330,2013-05-24 19:15:00
3:35 PM,69.8,39.7,33,30.12,10.0,NW,11.5,17.3,N/A,,Clear,320,2013-05-24 19:35:00
3:55 PM,70.7,39.4,32,30.12,10.0,NW,9.2,16.1,N/A,,Clear,320,2013-05-24 19:55:00
4:15 PM,70.3,39.6,33,30.12,10.0,NNW,10.4,-,N/A,,Clear,330,2013-05-24 20:15:00
4:35 PM,70.7,39.4,32,30.12,10.0,NNW,12.7,19.6,N/A,,Clear,330,2013-05-24 20:35:00
4:55 PM,70.7,38.5,31,30.12,10.0,WNW,12.7,18.4,N/A,,Clear,300,2013-05-24 20:55:00
5:15 PM,70.9,38.3,30,30.12,10.0,NNW,12.7,17.3,N/A,,Clear,330,2013-05-24 21:15:00
5:35 PM,70.3,37.8,30,30.12,10.0,WNW,12.7,18.4,N/A,,Clear,290,2013-05-24 21:35:00
5:55 PM,70.7,37.4,30,30.12,10.0,WNW,15.0,18.4,N/A,,Clear,300,2013-05-24 21:55:00
6:15 PM,70.0,37.2,30,30.12,10.0,NW,12.7,18.4,N/A,,Clear,310,2013-05-24 22:15:00
6:35 PM,69.4,36.5,30,30.12,10.0,WNW,11.5,19.6,N/A,,Clear,300,2013-05-24 22:35:00
6:55 PM,68.9,36.5,30,30.13,10.0,NW,10.4,-,N/A,,Clear,320,2013-05-24 22:55:00
7:15 PM,68.0,36.1,31,30.14,10.0,NW,9.2,-,N/A,,Clear,310,2013-05-24 23:15:00
7:35 PM,67.1,36.1,32,30.14,10.0,NW,6.9,-,N/A,,Clear,310,2013-05-24 23:35:00
7:55 PM,66.2,36.3,33,30.15,10.0,NNW,6.9,-,N/A,,Clear,330,2013-05-24 23:55:00
8:15 PM,65.5,36.0,34,30.15,10.0,NW,6.9,-,N/A,,Clear,320,2013-05-25 00:15:00
8:35 PM,62.8,39.7,43,30.16,10.0,NW,6.9,-,N/A,,Clear,310,2013-05-25 00:35:00
8:55 PM,61.9,39.9,44,30.17,10.0,NW,9.2,-,N/A,,Clear,310,2013-05-25 00:55:00
9:15 PM,61.9,38.1,41,30.17,10.0,NNW,4.6,-,N/A,,Clear,340,2013-05-25 01:15:00
9:35 PM,62.6,36.9,38,30.19,10.0,NNW,3.5,-,N/A,,Clear,340,2013-05-25 01:35:00
9:55 PM,60.3,39.4,46,30.19,10.0,North,4.6,-,N/A,,Clear,350,2013-05-25 01:55:00
10:15 PM,59.5,39.0,47,30.20,10.0,NNW,6.9,-,N/A,,Clear,340,2013-05-25 02:15:00
10:35 PM,59.9,38.1,44,30.21,10.0,North,3.5,-,N/A,,Clear,360,2013-05-25 02:35:00
10:55 PM,59.9,37.6,44,30.21,10.0,North,4.6,-,N/A,,Clear,350,2013-05-25 02:55:00
11:15 PM,57.6,38.5,49,30.21,10.0,North,5.8,-,N/A,,Clear,350,2013-05-25 03:15:00
11:35 PM,58.1,37.9,47,30.22,10.0,North,5.8,-,N/A,,Clear,350,2013-05-25 03:35:00
11:55 PM,56.5,38.8,52,30.23,10.0,North,3.5,-,N/A,,Clear,360,2013-05-25 03:55:00